Weather History for KPYM - February, 2013

Change the Weather History Date:

Saturday, February 16, 2013

  Actual Average Record
Temperature  
Mean Temperature 34 °F -  
Max Temperature 37 °F 40 °F 63 °F (1984)
Min Temperature 32 °F 19 °F -4 °F (1987)
Degree Days  
Heating Degree Days 30    
Moisture  
Dew Point 30 °F    
Average Humidity 87    
Maximum Humidity 100    
Minimum Humidity 70    
Precipitation  
Precipitation 0.04 in - - ()
Sea Level Pressure  
Sea Level Pressure 29.84 in    
Wind  
Wind Speed 5 mph (North)    
Max Wind Speed 18 mph    
Max Gust Speed 25 mph    
Visibility 4 miles    
Events Fog , Snow    
Averages and records for this station are not official NWS values.
T = Trace of Precipitation, MM = Missing Value Source: NWS Daily Summary

Daily Weather History Graph

Daily Weather History Graph

Search for Another Location

Airport or City:

Trip Planner

Search our weather history database for the weather conditions in past years. The results will help you decide how hot, cold, wet, or windy it might be!

Date:

Astronomy

Feb. 16, 2013 Rise Set
Actual Time 6:36 AM EST 5:17 PM EST
Civil Twilight 6:08 AM EST 5:46 PM EST
Nautical Twilight 5:35 AM EST 6:18 PM EST
Astronomical Twilight 5:03 AM EST 6:51 PM EST
Moon 9:41 AM EST (2/16) No Moon Set
Length of Visible Light 11h 37m
Length of Day
10h 40m
Waxing Crescent, 39% of the Moon is Illuminated
Feb 16
Waxing Crescent
Feb 17
First Quarter
Feb 25
Full
Mar 4
Last Quarter
Mar 11
New

Hourly Weather History & Observations

Time (EST) Temp. Windchill Dew Point Humidity Pressure Visibility Wind Dir Wind Speed Gust Speed Precip Events Conditions
12:09 AM 33.8 °F - 30.2 °F 87% 29.96 in 0.8 mi Calm Calm - N/A   Mist
12:23 AM 33.8 °F - 33.8 °F 100% 29.95 in 0.2 mi Calm Calm - N/A Fog Fog
12:34 AM 33.8 °F - 33.8 °F 100% 29.95 in 0.2 mi Calm Calm - N/A Fog Fog
12:52 AM 34.0 °F - 33.1 °F 96% 29.96 in 0.2 mi Calm Calm - N/A Fog Fog
1:14 AM 33.8 °F - 30.2 °F 87% 29.95 in 0.5 mi Calm Calm - N/A Fog Fog
1:33 AM 33.8 °F - 30.2 °F 87% 29.94 in 1.2 mi Calm Calm - N/A   Overcast
1:38 AM 33.8 °F - 30.2 °F 87% 29.94 in 0.8 mi Calm Calm - N/A   Overcast
1:52 AM 33.1 °F - 30.9 °F 92% 29.94 in 0.5 mi Calm Calm - N/A Fog Fog
1:55 AM 32.0 °F - 30.2 °F 93% 29.94 in 0.2 mi Calm Calm - N/A Fog Fog
2:52 AM 32.0 °F - 30.0 °F 92% 29.91 in 0.2 mi Calm Calm - N/A Fog Fog
3:52 AM 32.0 °F - 30.0 °F 92% 29.90 in 0.2 mi Calm Calm - N/A Fog Fog
4:52 AM 33.1 °F 30.0 °F 32.0 °F 96% 29.91 in 0.2 mi WNW 3.5 mph - N/A Fog Fog
5:04 AM 33.8 °F 30.8 °F 32.0 °F 93% 29.91 in 0.2 mi WNW 3.5 mph - N/A Fog Fog
5:26 AM 35.6 °F 32.8 °F 33.8 °F 93% 29.89 in 0.5 mi NNE 3.5 mph - N/A Fog Fog
5:49 AM 35.6 °F 29.9 °F 33.8 °F 93% 29.89 in 1.2 mi North 6.9 mph - N/A   Overcast
5:52 AM 35.1 °F 27.9 °F 33.1 °F 92% 29.90 in 2.5 mi North 9.2 mph - N/A   Overcast
5:59 AM 33.8 °F 26.4 °F 32.0 °F 93% 29.90 in 10.0 mi North 9.2 mph - N/A   Overcast
7:31 AM 33.8 °F 29.6 °F 30.2 °F 87% 29.92 in 10.0 mi North 4.6 mph - N/A   Mostly Cloudy
7:52 AM 34.0 °F 28.8 °F 30.0 °F 85% 29.93 in 10.0 mi NNE 5.8 mph - N/A   Overcast
8:52 AM 36.0 °F 29.6 °F 28.9 °F 76% 29.94 in 10.0 mi NNW 8.1 mph - N/A   Overcast
9:52 AM 36.0 °F 29.0 °F 28.0 °F 73% 29.92 in 10.0 mi North 9.2 mph - N/A   Overcast
10:52 AM 37.0 °F 30.4 °F 28.9 °F 73% 29.91 in 10.0 mi North 9.2 mph - N/A   Overcast
11:07 AM 37.4 °F 30.8 °F 28.4 °F 70% 29.90 in 10.0 mi North 9.2 mph - N/A   Overcast
11:52 AM 36.0 °F 29.0 °F 28.9 °F 76% 29.89 in 10.0 mi North 9.2 mph - N/A   Overcast
12:15 PM 35.6 °F 29.2 °F 28.4 °F 75% 29.87 in 10.0 mi North 8.1 mph - N/A   Overcast
12:52 PM 35.1 °F 27.9 °F 30.0 °F 82% 29.87 in 10.0 mi North 9.2 mph - N/A   Overcast
1:43 PM 35.6 °F 29.9 °F 30.2 °F 81% 29.85 in 5.0 mi North 6.9 mph - 0.00 in Snow Light Snow
1:52 PM 35.1 °F 27.9 °F 30.0 °F 82% 29.85 in 6.0 mi North 9.2 mph - 0.00 in Snow Light Snow
2:35 PM 33.8 °F 25.8 °F 30.2 °F 87% 29.84 in 4.0 mi North 10.4 mph - 0.00 in Snow Light Snow
2:52 PM 34.0 °F 27.2 °F 30.0 °F 85% 29.84 in 3.0 mi North 8.1 mph - 0.00 in Snow Light Snow
2:59 PM 33.8 °F 27.0 °F 30.2 °F 87% 29.83 in 1.8 mi NNW 8.1 mph - 0.00 in Snow Light Snow
3:09 PM 33.8 °F 27.7 °F 30.2 °F 87% 29.83 in 2.0 mi North 6.9 mph - 0.00 in Snow Light Snow
3:23 PM 33.8 °F 28.6 °F 30.2 °F 87% 29.83 in 1.5 mi North 5.8 mph - 0.01 in Snow Light Snow
3:49 PM 33.8 °F 26.4 °F 30.2 °F 87% 29.82 in 0.8 mi NNW 9.2 mph - 0.01 in Snow Light Snow
3:52 PM 33.1 °F 24.9 °F 30.0 °F 89% 29.83 in 0.8 mi NNW 10.4 mph - 0.01 in Snow Light Snow
3:58 PM 33.8 °F 26.4 °F 30.2 °F 87% 29.82 in 1.0 mi North 9.2 mph - 0.01 in Snow Light Snow
4:07 PM 33.8 °F 27.0 °F 30.2 °F 87% 29.82 in 1.2 mi North 8.1 mph - 0.01 in Snow Light Snow
4:36 PM 33.8 °F 27.7 °F 30.2 °F 87% 29.81 in 1.5 mi North 6.9 mph - 0.01 in Snow Light Snow
4:52 PM 33.1 °F 26.9 °F 30.0 °F 89% 29.82 in 1.2 mi North 6.9 mph - 0.01 in Snow Light Snow
5:25 PM 33.8 °F 26.4 °F 30.2 °F 87% 29.80 in 3.0 mi North 9.2 mph - 0.01 in Snow Light Snow
5:38 PM 33.8 °F 27.0 °F 30.2 °F 87% 29.81 in 3.0 mi NNE 8.1 mph - 0.01 in Snow Light Snow
5:52 PM 33.1 °F 26.9 °F 30.0 °F 89% 29.81 in 3.0 mi NNE 6.9 mph - 0.01 in Snow Light Snow
6:11 PM 33.8 °F 28.6 °F 30.2 °F 87% 29.81 in 2.5 mi North 5.8 mph - 0.00 in Snow Light Snow
6:25 PM 33.8 °F 28.6 °F 30.2 °F 87% 29.81 in 3.0 mi North 5.8 mph - 0.00 in Snow Light Snow
6:52 PM 33.1 °F 27.7 °F 30.9 °F 92% 29.81 in 2.5 mi NW 5.8 mph - 0.00 in Snow Light Snow
7:01 PM 33.8 °F 28.6 °F 30.2 °F 87% 29.80 in 2.0 mi NNW 5.8 mph - 0.00 in Snow Light Snow
7:17 PM 33.8 °F 26.4 °F 30.2 °F 87% 29.80 in 1.5 mi North 9.2 mph - 0.01 in Snow Light Snow
7:39 PM 33.8 °F 26.4 °F 30.2 °F 87% 29.79 in 3.0 mi North 9.2 mph - 0.01 in Snow Light Snow
7:52 PM 33.1 °F 24.4 °F 30.0 °F 89% 29.79 in 3.0 mi North 11.5 mph 18.4 mph 0.01 in Snow Light Snow
8:01 PM 33.8 °F 25.8 °F 30.2 °F 87% 29.78 in 2.5 mi NNE 10.4 mph - 0.00 in Snow Light Snow
8:15 PM 33.8 °F 26.4 °F 30.2 °F 87% 29.77 in 2.5 mi NNE 9.2 mph - 0.00 in Snow Light Snow
8:32 PM 33.8 °F 25.8 °F 30.2 °F 87% 29.76 in 4.0 mi North 10.4 mph - 0.00 in Snow Light Snow
8:52 PM 33.1 °F 24.4 °F 30.9 °F 92% 29.76 in 6.0 mi North 11.5 mph 19.6 mph 0.00 in Snow Light Snow
9:39 PM 33.8 °F 27.0 °F 30.2 °F 87% 29.74 in 8.0 mi North 8.1 mph 17.3 mph 0.00 in   Overcast
9:52 PM 33.1 °F 24.9 °F 30.0 °F 89% 29.74 in 5.0 mi North 10.4 mph - 0.00 in Snow Light Snow
10:31 PM 33.8 °F 27.0 °F 30.2 °F 87% 29.72 in 10.0 mi North 8.1 mph 18.4 mph 0.00 in   Overcast
10:52 PM 33.1 °F 23.4 °F 30.0 °F 89% 29.70 in 10.0 mi North 13.8 mph - 0.00 in   Overcast
11:19 PM 33.8 °F 22.8 °F 28.4 °F 81% 29.67 in 10.0 mi North 18.4 mph 25.3 mph N/A   Overcast
11:52 PM 33.1 °F 22.2 °F 28.0 °F 82% 29.66 in 4.0 mi NNE 17.3 mph 24.2 mph 0.00 in Snow Light Snow
11:59 PM 32.0 °F 21.6 °F 28.4 °F 87% 29.65 in 1.8 mi NNE 15.0 mph 24.2 mph 0.00 in Snow Light Snow